カタログに戻る

COSMOS 970 DEB

運用中LEO
NORAD 14443·DEBRIS·🇷🇺 Russia

打ち上げ Dec 21, 1977 から Baikonur Cosmodrome

Loading…

次のパス (今後24時間)

TLE

最新Source: Space-Track

元期: Sep 13, 2026, 19:45 UTC

1 14443U 77121BF  26256.82293322  .00004150  00000-0  70920-3 0  9997
2 14443  65.5743  52.6273 0081930 134.6944 226.0877 14.67867032349119

AllMySatでCOSMOS 970 DEBをリアルタイム追跡

Download on the App Store